{"data":{"norad_id":63668,"intl_designator":"2025-085E","name":"STARLINK-11663 [DTC]","alt_names":[],"object_type":"PAYLOAD","status":"ACTIVE","operator":null,"country":"US","launch_date":"2025-04-28","launch_site_code":"AFETR","launch_vehicle":null,"mission":null,"orbit_class":"UNKNOWN","rcs_meters":null,"size_class":null,"mass_kg":null,"dimensions":null,"purposes":["comms"],"wikipedia_slug":null,"has_3d_model":false,"image_url":null,"decayed_at":null,"tle_current":{"epoch":"2026-09-20T03:52:01.451424Z","epoch_age_seconds":181929,"freshness":"STALE","line1":"1 63668U 25085E   26263.16112791  .00192383  00000+0  14628-2 0  9994","line2":"2 63668  43.0014 186.5212 0003127 269.7946  90.2564 15.70927494 80837","mean_motion":15.70927494,"eccentricity":0.0003127,"inclination_deg":43.0014,"raan_deg":186.5212,"arg_perigee_deg":269.7946,"mean_anomaly_deg":90.2564,"bstar":0.0014628,"rev_number":8083,"period_min":91.665592810613,"perigee_km":354.13915769751,"apogee_km":358.35084019966,"semimajor_km":6734.3819989486,"source":"CELESTRAK","updated_at":"2026-09-21T09:00:35.057565Z"}}}